Location: Blangy-Tronville
(49.8790°N, 2.4226°E)
Time: 20:54:09
(UTC+00:00)

Cosmos 2082 Rocket - Pass Details

Date: 18 November 2025
Orbit: 834 x 851 km, 71.0° (Epoch: 04 December)

Event Time Altitude Azimuth Distance (km) Brightness Sun altitude
Rises 17:30:19 0° 331° (NNW) 3,393 5.6 -13.9°
Reaches altitude 10° 17:32:46 10° 332° (NNW) 2,455 4.8 -14.3°
Maximum altitude 17:38:25 81° 61° (ENE) 851 2.1 -15.2°
Drops below altitude 10° 17:44:01 10° 149° (SSE) 2,442 4.4 -16.0°
Sets 17:46:27 0° 150° (SSE) 3,373 5.1 -16.4°
